AAL3521 KLAX-KSFO

Flight info

Callsign AAL3521
Flight time 0h 53m
Altitude 34000
Route SUMMR2 STOKD SERFR SERFR4
Aircraft A321/M-SDE3FGHIRWY/LB1

Departure

Time 2026-05-07 00:16
Airport Los Angeles International Airport (KLAX)

Arrival

Time 2026-05-07 01:09
Airport San Francisco International Airport (KSFO)
Time Latitude Longitude Altitude Speed Heading
2026-05-06 23:43 33.94044 -118.40613 126 ft 0 kts 263°
2026-05-07 00:04 33.94044 -118.40606 126 ft 4 kts 261°
2026-05-07 00:04 33.94052 -118.40576 117 ft 4 kts 233°
2026-05-07 00:05 33.94070 -118.40559 120 ft 4 kts 179°
2026-05-07 00:05 33.94080 -118.40560 122 ft 0 kts 173°
2026-05-07 00:08 33.94058 -118.40557 124 ft 6 kts 173°
2026-05-07 00:08 33.94022 -118.40551 121 ft 4 kts 173°
2026-05-07 00:08 33.94000 -118.40548 122 ft 0 kts 173°
2026-05-07 00:09 33.93988 -118.40546 122 ft 4 kts 173°
2026-05-07 00:09 33.93940 -118.40539 124 ft 9 kts 173°
2026-05-07 00:09 33.93884 -118.40531 123 ft 7 kts 173°
2026-05-07 00:10 33.93839 -118.40519 123 ft 7 kts 147°
2026-05-07 00:10 33.93831 -118.40466 125 ft 8 kts 84°
2026-05-07 00:10 33.93838 -118.40393 124 ft 10 kts 82°
2026-05-07 00:10 33.93848 -118.40299 126 ft 13 kts 83°
2026-05-07 00:11 33.93860 -118.40183 126 ft 15 kts 83°
2026-05-07 00:11 33.93873 -118.40049 126 ft 17 kts 83°
2026-05-07 00:11 33.93888 -118.39905 125 ft 18 kts 83°
2026-05-07 00:11 33.93904 -118.39750 126 ft 19 kts 83°
2026-05-07 00:12 33.93921 -118.39588 126 ft 20 kts 82°
2026-05-07 00:12 33.93937 -118.39429 123 ft 17 kts 83°
2026-05-07 00:12 33.93952 -118.39284 126 ft 18 kts 82°
2026-05-07 00:12 33.93967 -118.39131 123 ft 19 kts 83°
2026-05-07 00:13 33.93983 -118.38973 123 ft 19 kts 83°
2026-05-07 00:13 33.94000 -118.38809 123 ft 20 kts 83°
2026-05-07 00:13 33.94017 -118.38645 124 ft 20 kts 83°
2026-05-07 00:13 33.94034 -118.38473 125 ft 21 kts 83°
2026-05-07 00:14 33.94053 -118.38297 124 ft 21 kts 83°
2026-05-07 00:14 33.94069 -118.38137 125 ft 14 kts 83°
2026-05-07 00:14 33.94075 -118.38033 125 ft 10 kts 103°
2026-05-07 00:14 33.94012 -118.38001 123 ft 10 kts 187°
2026-05-07 00:15 33.93981 -118.38071 124 ft 11 kts 262°
2026-05-07 00:15 33.93955 -118.38314 126 ft 61 kts 263°
2026-05-07 00:15 33.93876 -118.39088 126 ft 123 kts 263°
2026-05-07 00:15 33.93752 -118.40281 238 ft 158 kts 262°
2026-05-07 00:16 33.93613 -118.41543 995 ft 149 kts 264°
2026-05-07 00:16 33.93478 -118.42795 1648 ft 152 kts 263°
2026-05-07 00:16 33.93343 -118.44088 2062 ft 165 kts 264°
2026-05-07 00:16 33.93197 -118.45549 2317 ft 185 kts 263°
2026-05-07 00:17 33.93045 -118.47149 2638 ft 200 kts 264°
2026-05-07 00:17 33.92903 -118.48893 2831 ft 220 kts 265°
2026-05-07 00:17 33.92750 -118.50827 2961 ft 245 kts 265°
2026-05-07 00:17 33.92582 -118.52949 3379 ft 262 kts 265°
2026-05-07 00:18 33.92403 -118.55162 4026 ft 268 kts 265°
2026-05-07 00:18 33.92219 -118.57413 4815 ft 272 kts 267°
2026-05-07 00:18 33.92030 -118.59698 5539 ft 276 kts 267°
2026-05-07 00:18 33.91838 -118.62015 6209 ft 281 kts 267°
2026-05-07 00:19 33.91766 -118.64377 6848 ft 284 kts 272°
2026-05-07 00:19 33.91765 -118.66773 7458 ft 289 kts 272°
2026-05-07 00:19 33.91759 -118.69213 8098 ft 294 kts 272°
2026-05-07 00:19 33.91751 -118.71689 8747 ft 298 kts 272°
2026-05-07 00:20 33.91741 -118.74204 9403 ft 302 kts 273°
2026-05-07 00:20 33.91730 -118.76751 10048 ft 306 kts 273°
2026-05-07 00:20 33.91719 -118.79374 10340 ft 324 kts 273°
2026-05-07 00:20 33.91710 -118.82180 10469 ft 346 kts 272°
2026-05-07 00:21 33.91717 -118.85142 10802 ft 358 kts 274°
2026-05-07 00:21 33.91778 -118.88122 11362 ft 362 kts 275°
2026-05-07 00:21 33.91872 -118.91208 11968 ft 366 kts 275°
2026-05-07 00:21 33.91980 -118.94280 12574 ft 369 kts 275°
2026-05-07 00:22 33.92089 -118.97384 13170 ft 373 kts 275°
2026-05-07 00:22 33.92422 -119.00437 13736 ft 373 kts 287°
2026-05-07 00:22 33.93252 -119.03393 14272 ft 372 kts 298°
2026-05-07 00:22 33.94517 -119.06099 14823 ft 372 kts 306°
2026-05-07 00:23 33.95902 -119.08754 15387 ft 374 kts 306°
2026-05-07 00:23 33.97286 -119.11422 15940 ft 377 kts 305°
2026-05-07 00:23 33.98677 -119.14114 16498 ft 380 kts 305°
2026-05-07 00:23 34.00122 -119.16836 17049 ft 381 kts 310°
2026-05-07 00:24 34.01867 -119.19221 17579 ft 379 kts 321°
2026-05-07 00:24 34.03935 -119.21174 18125 ft 378 kts 328°
2026-05-07 00:24 34.06085 -119.23008 18638 ft 380 kts 328°
2026-05-07 00:24 34.08225 -119.24840 19103 ft 383 kts 328°
2026-05-07 00:25 34.10400 -119.26706 19556 ft 385 kts 328°
2026-05-07 00:25 34.12620 -119.28614 20039 ft 388 kts 328°
2026-05-07 00:25 34.14818 -119.30506 20515 ft 390 kts 328°
2026-05-07 00:25 34.16285 -119.31770 20834 ft 392 kts 328°
2026-05-07 00:26 34.19265 -119.34340 21473 ft 395 kts 328°
2026-05-07 00:26 34.21509 -119.36276 21939 ft 398 kts 328°
2026-05-07 00:26 34.23770 -119.38228 22386 ft 401 kts 328°
2026-05-07 00:26 34.25273 -119.39528 22684 ft 402 kts 328°
2026-05-07 00:27 34.27556 -119.41504 23121 ft 405 kts 328°
2026-05-07 00:27 34.30600 -119.44141 23682 ft 408 kts 328°
2026-05-07 00:27 34.32158 -119.45491 23919 ft 409 kts 328°
2026-05-07 00:27 34.34483 -119.47503 24283 ft 411 kts 328°
2026-05-07 00:28 34.36814 -119.49521 24642 ft 413 kts 328°
2026-05-07 00:28 34.39918 -119.52209 25113 ft 416 kts 327°
2026-05-07 00:28 34.42134 -119.54486 25434 ft 422 kts 318°
2026-05-07 00:28 34.43526 -119.56206 25684 ft 423 kts 318°
2026-05-07 00:29 34.45592 -119.58753 26037 ft 425 kts 318°
2026-05-07 00:29 34.47670 -119.61306 26376 ft 426 kts 318°
2026-05-07 00:30 34.53957 -119.69033 27398 ft 432 kts 318°
2026-05-07 00:30 34.56067 -119.71634 27686 ft 434 kts 318°
2026-05-07 00:30 34.58183 -119.74251 28010 ft 435 kts 317°
2026-05-07 00:30 34.60308 -119.76877 28343 ft 436 kts 318°
2026-05-07 00:31 34.62439 -119.79509 28665 ft 438 kts 318°
2026-05-07 00:31 34.64557 -119.82129 28927 ft 441 kts 318°
2026-05-07 00:31 34.66734 -119.84823 29229 ft 442 kts 318°
2026-05-07 00:31 34.68862 -119.87458 29526 ft 443 kts 318°
2026-05-07 00:32 34.71023 -119.90136 29804 ft 445 kts 318°
2026-05-07 00:32 34.73194 -119.92834 30100 ft 447 kts 317°
2026-05-07 00:32 34.75373 -119.95544 30353 ft 449 kts 317°
2026-05-07 00:32 34.77564 -119.98269 30599 ft 451 kts 318°
2026-05-07 00:33 34.79762 -120.01000 30861 ft 453 kts 317°
2026-05-07 00:33 34.81960 -120.03738 31200 ft 452 kts 317°
2026-05-07 00:33 34.84154 -120.06473 31526 ft 451 kts 317°
2026-05-07 00:33 34.86343 -120.09205 31856 ft 451 kts 318°
2026-05-07 00:34 34.88533 -120.11938 32181 ft 450 kts 318°
2026-05-07 00:34 34.90717 -120.14664 32510 ft 449 kts 317°
2026-05-07 00:34 34.92899 -120.17385 32847 ft 449 kts 317°
2026-05-07 00:34 34.95085 -120.20112 33179 ft 448 kts 317°
2026-05-07 00:35 34.97261 -120.22832 33485 ft 448 kts 317°
2026-05-07 00:35 34.99432 -120.25550 33770 ft 447 kts 317°
2026-05-07 00:35 35.01600 -120.28273 34039 ft 448 kts 317°
2026-05-07 00:35 35.03763 -120.30995 34118 ft 445 kts 317°
2026-05-07 00:36 35.08047 -120.36390 34131 ft 441 kts 317°
2026-05-07 00:36 35.12428 -120.41602 34126 ft 439 kts 321°
2026-05-07 00:37 35.16967 -120.46578 34119 ft 438 kts 322°
2026-05-07 00:37 35.21515 -120.51546 34105 ft 439 kts 321°
2026-05-07 00:38 35.26028 -120.56583 34110 ft 439 kts 320°
2026-05-07 00:38 35.30513 -120.61651 34113 ft 439 kts 320°
2026-05-07 00:39 35.35007 -120.66734 34120 ft 440 kts 320°
2026-05-07 00:39 35.39506 -120.71818 34126 ft 440 kts 320°
2026-05-07 00:40 35.44002 -120.76903 34137 ft 440 kts 320°
2026-05-07 00:40 35.48520 -120.81962 34134 ft 438 kts 324°
2026-05-07 00:41 35.53378 -120.86461 34136 ft 438 kts 326°
2026-05-07 00:41 35.58237 -120.90973 34138 ft 438 kts 325°
2026-05-07 00:42 35.63089 -120.95492 34140 ft 437 kts 325°
2026-05-07 00:42 35.67932 -121.00012 34128 ft 437 kts 325°
2026-05-07 00:43 35.72883 -121.04629 34132 ft 437 kts 325°
2026-05-07 00:43 35.77629 -121.09057 34139 ft 437 kts 325°
2026-05-07 00:44 35.82471 -121.13586 34136 ft 437 kts 325°
2026-05-07 00:44 35.87293 -121.18114 33984 ft 433 kts 325°
2026-05-07 00:45 35.89670 -121.20342 33720 ft 425 kts 325°
2026-05-07 00:45 35.92001 -121.22526 33455 ft 418 kts 325°
2026-05-07 00:45 35.94303 -121.24690 33179 ft 414 kts 325°
2026-05-07 00:45 35.96588 -121.26843 32920 ft 412 kts 325°
2026-05-07 00:46 35.98863 -121.28981 32659 ft 409 kts 325°
2026-05-07 00:46 36.01111 -121.31087 32240 ft 405 kts 325°
2026-05-07 00:46 36.03348 -121.33187 31793 ft 402 kts 325°
2026-05-07 00:46 36.05562 -121.35273 31357 ft 399 kts 324°
2026-05-07 00:47 36.07810 -121.37250 30906 ft 395 kts 329°
2026-05-07 00:47 36.10127 -121.39060 30456 ft 393 kts 329°
2026-05-07 00:47 36.12433 -121.40857 29986 ft 391 kts 329°
2026-05-07 00:47 36.14722 -121.42639 29551 ft 387 kts 329°
2026-05-07 00:48 36.16989 -121.44401 29123 ft 384 kts 329°
2026-05-07 00:48 36.19238 -121.46151 28707 ft 381 kts 329°
2026-05-07 00:48 36.21470 -121.47894 28303 ft 378 kts 329°
2026-05-07 00:48 36.23687 -121.49628 27905 ft 376 kts 329°
2026-05-07 00:49 36.25889 -121.51353 27506 ft 374 kts 329°
2026-05-07 00:49 36.28082 -121.53069 27119 ft 371 kts 329°
2026-05-07 00:49 36.30254 -121.54774 26732 ft 368 kts 329°
2026-05-07 00:49 36.32413 -121.56467 26352 ft 366 kts 329°
2026-05-07 00:50 36.34557 -121.58152 25965 ft 364 kts 329°
2026-05-07 00:50 36.36689 -121.59830 25559 ft 362 kts 329°
2026-05-07 00:50 36.38812 -121.61504 25163 ft 360 kts 329°
2026-05-07 00:50 36.40927 -121.63170 24759 ft 359 kts 329°
2026-05-07 00:51 36.43028 -121.64820 24364 ft 357 kts 329°
2026-05-07 00:51 36.45129 -121.66470 23950 ft 356 kts 329°
2026-05-07 00:51 36.47216 -121.68111 23511 ft 355 kts 329°
2026-05-07 00:51 36.49292 -121.69745 23096 ft 352 kts 329°
2026-05-07 00:52 36.51354 -121.71369 22673 ft 349 kts 329°
2026-05-07 00:52 36.53395 -121.72981 22263 ft 347 kts 329°
2026-05-07 00:52 36.55423 -121.74587 21851 ft 344 kts 329°
2026-05-07 00:52 36.57436 -121.76182 21419 ft 342 kts 329°
2026-05-07 00:53 36.59433 -121.77762 21020 ft 339 kts 329°
2026-05-07 00:53 36.61419 -121.79332 20623 ft 337 kts 329°
2026-05-07 00:53 36.63392 -121.80891 20216 ft 335 kts 329°
2026-05-07 00:53 36.65352 -121.82448 19807 ft 334 kts 329°
2026-05-07 00:54 36.67305 -121.84002 19407 ft 332 kts 329°
2026-05-07 00:54 36.69254 -121.85551 18995 ft 331 kts 329°
2026-05-07 00:54 36.71192 -121.87089 18608 ft 330 kts 329°
2026-05-07 00:54 36.73149 -121.88585 18095 ft 331 kts 335°
2026-05-07 00:55 36.75262 -121.89680 17660 ft 327 kts 345°
2026-05-07 00:55 36.77454 -121.90349 17251 ft 323 kts 349°
2026-05-07 00:55 36.79643 -121.90955 16865 ft 321 kts 349°
2026-05-07 00:55 36.81816 -121.91563 16473 ft 319 kts 349°
2026-05-07 00:56 36.83973 -121.92170 16088 ft 317 kts 349°
2026-05-07 00:56 36.86121 -121.92777 15692 ft 316 kts 349°
2026-05-07 00:56 36.88261 -121.93379 15308 ft 315 kts 349°
2026-05-07 00:56 36.90393 -121.93977 14923 ft 313 kts 349°
2026-05-07 00:57 36.92518 -121.94572 14535 ft 313 kts 349°
2026-05-07 00:57 36.94642 -121.95166 14154 ft 312 kts 350°
2026-05-07 00:57 36.96746 -121.95835 13754 ft 312 kts 346°
2026-05-07 00:57 36.98823 -121.96611 13377 ft 311 kts 345°
2026-05-07 00:58 37.00880 -121.97435 12985 ft 310 kts 343°
2026-05-07 00:58 37.02923 -121.98268 12606 ft 308 kts 344°
2026-05-07 00:58 37.04955 -121.99091 12231 ft 306 kts 344°
2026-05-07 00:58 37.06978 -121.99896 11851 ft 305 kts 344°
2026-05-07 00:59 37.11003 -122.01475 11105 ft 301 kts 344°
2026-05-07 00:59 37.13000 -122.02252 10736 ft 300 kts 344°
2026-05-07 00:59 37.14991 -122.03027 10368 ft 299 kts 345°
2026-05-07 01:00 37.16953 -122.03794 9992 ft 290 kts 344°
2026-05-07 01:00 37.18847 -122.04538 9664 ft 279 kts 344°
2026-05-07 01:00 37.20660 -122.05253 9271 ft 267 kts 344°
2026-05-07 01:00 37.22420 -122.05945 8948 ft 264 kts 344°
2026-05-07 01:01 37.24173 -122.06632 8622 ft 264 kts 344°
2026-05-07 01:01 37.25922 -122.07316 8293 ft 263 kts 345°
2026-05-07 01:01 37.27667 -122.08000 7956 ft 263 kts 344°
2026-05-07 01:01 37.29415 -122.08686 7613 ft 264 kts 344°
2026-05-07 01:02 37.31172 -122.09378 7264 ft 264 kts 343°
2026-05-07 01:02 37.32923 -122.10069 6904 ft 264 kts 344°
2026-05-07 01:02 37.34674 -122.10758 6578 ft 264 kts 345°
2026-05-07 01:02 37.36431 -122.11448 6214 ft 264 kts 345°
2026-05-07 01:03 37.38174 -122.12126 5867 ft 261 kts 345°
2026-05-07 01:03 37.39908 -122.12744 5420 ft 259 kts 346°
2026-05-07 01:03 37.41653 -122.13336 5026 ft 259 kts 346°
2026-05-07 01:03 37.43363 -122.13908 4542 ft 251 kts 346°
2026-05-07 01:04 37.45044 -122.14473 4069 ft 251 kts 346°
2026-05-07 01:04 37.46744 -122.15040 3673 ft 253 kts 345°
2026-05-07 01:04 37.48444 -122.15599 3369 ft 248 kts 345°
2026-05-07 01:04 37.50058 -122.16128 3311 ft 235 kts 345°
2026-05-07 01:05 37.51627 -122.16643 3228 ft 231 kts 344°
2026-05-07 01:05 37.53066 -122.17396 3174 ft 219 kts 326°
2026-05-07 01:05 37.54151 -122.18695 2984 ft 214 kts 305°
2026-05-07 01:05 37.54876 -122.20316 2752 ft 208 kts 298°
2026-05-07 01:06 37.55532 -122.21880 2480 ft 196 kts 297°
2026-05-07 01:06 37.56145 -122.23335 2225 ft 179 kts 296°
2026-05-07 01:06 37.56700 -122.24653 2003 ft 161 kts 297°
2026-05-07 01:06 37.57205 -122.25850 1785 ft 151 kts 296°
2026-05-07 01:07 37.57533 -122.26630 1647 ft 147 kts 297°
2026-05-07 01:07 37.58002 -122.27743 1448 ft 142 kts 296°
2026-05-07 01:07 37.58460 -122.28832 1274 ft 141 kts 297°
2026-05-07 01:07 37.58919 -122.29923 1087 ft 139 kts 295°
2026-05-07 01:08 37.59366 -122.30985 897 ft 134 kts 296°
2026-05-07 01:08 37.59807 -122.32036 682 ft 137 kts 297°
2026-05-07 01:08 37.60246 -122.33083 549 ft 133 kts 298°
2026-05-07 01:08 37.60670 -122.34092 381 ft 129 kts 296°
2026-05-07 01:09 37.61082 -122.35087 198 ft 128 kts 297°
2026-05-07 01:09 37.61502 -122.36075 40 ft 126 kts 297°
2026-05-07 01:09 37.61863 -122.36930 17 ft 92 kts 298°
2026-05-07 01:09 37.62080 -122.37446 16 ft 43 kts 298°
2026-05-07 01:10 37.62180 -122.37686 20 ft 23 kts 292°
2026-05-07 01:10 37.62206 -122.37876 22 ft 21 kts 278°
2026-05-07 01:10 37.62222 -122.38028 25 ft 15 kts 276°
2026-05-07 01:10 37.62230 -122.38161 24 ft 16 kts 269°
2026-05-07 01:11 37.62186 -122.38291 22 ft 16 kts 214°
2026-05-07 01:11 37.62088 -122.38335 24 ft 13 kts 197°
2026-05-07 01:11 37.62009 -122.38305 23 ft 13 kts 122°
2026-05-07 01:11 37.61964 -122.38197 23 ft 15 kts 118°
2026-05-07 01:12 37.61908 -122.38067 24 ft 18 kts 122°
2026-05-07 01:12 37.61815 -122.37965 20 ft 19 kts 157°
2026-05-07 01:12 37.61677 -122.37961 17 ft 22 kts 199°
2026-05-07 01:12 37.61540 -122.38046 14 ft 21 kts 208°
2026-05-07 01:13 37.61421 -122.38125 15 ft 18 kts 207°
2026-05-07 01:13 37.61317 -122.38194 15 ft 16 kts 208°
2026-05-07 01:13 37.61226 -122.38255 19 ft 13 kts 207°
2026-05-07 01:13 37.61157 -122.38300 18 ft 10 kts 208°
2026-05-07 01:14 37.61122 -122.38352 18 ft 7 kts 259°
2026-05-07 01:14 37.61134 -122.38405 19 ft 6 kts 297°
2026-05-07 01:14 37.61147 -122.38435 18 ft 2 kts 298°
2026-05-07 01:14 37.61153 -122.38450 17 ft 2 kts 298°
2026-05-07 01:15 37.61156 -122.38456 17 ft 0 kts 298°